When you browse on this site, cookies collect data to enhance your experience and personalize the content and advertising you see.
Visit our Privacy Policy to learn more. By continuing to use the site, you agree to this use of cookies and data.
  • In United Kingdom
  • List of Countries
  • For 7 days
  • Water Temperature
  • Weather Map
  • Weather Widgets
  • user-avatar
    Login

    Hourly Weather Shapky

    Today, 22 September, Sunday

    Time Temperature Precipitation Wind Pressure Humidity
    00:00 +8°C° 0 mm 5 mps 754 mmHg 52%
    01:00 +9°C° 0 mm 6 mps 754 mmHg 60%
    02:00 +9°C° 0 mm 7 mps 753 mmHg 67%
    03:00 +10°C° 0.1 mm 7 mps 753 mmHg 73%
    04:00 +10°C° 0.1 mm 7 mps 752 mmHg 79%
    05:00 +11°C° 0.1 mm 7 mps 752 mmHg 84%
    06:00 +11°C° 0.1 mm 7 mps 752 mmHg 82%
    07:00 +12°C° 0.1 mm 8 mps 752 mmHg 80%
    08:00 +12°C° 0.1 mm 8 mps 752 mmHg 78%
    09:00 +13°C° 0 mm 8 mps 752 mmHg 73%
    10:00 +15°C° 0 mm 8 mps 752 mmHg 69%
    11:00 +15°C° 0 mm 8 mps 752 mmHg 65%
    12:00 +16°C° 0 mm 8 mps 752 mmHg 61%
    13:00 +17°C° 0 mm 8 mps 751 mmHg 58%
    14:00 +17°C° 0 mm 8 mps 751 mmHg 55%
    15:00 +17°C° 0 mm 7 mps 751 mmHg 55%
    16:00 +17°C° 0 mm 7 mps 751 mmHg 55%
    17:00 +17°C° 0 mm 6 mps 751 mmHg 55%
    18:00 +16°C° 0 mm 5 mps 751 mmHg 59%
    19:00 +15°C° 0 mm 5 mps 751 mmHg 63%
    20:00 +14°C° 0 mm 4 mps 752 mmHg 67%
    21:00 +13°C° 0 mm 4 mps 752 mmHg 70%
    22:00 +13°C° 0 mm 4 mps 752 mmHg 74%
    23:00 +12°C° 0 mm 4 mps 752 mmHg 78%

    Tomorrow, 23 September, Monday

    Time Temperature Precipitation Wind Pressure Humidity
    00:00 +12°C° 0.1 mm 4 mps 752 mmHg 81%
    01:00 +11°C° 0.1 mm 4 mps 753 mmHg 84%
    02:00 +10°C° 0.1 mm 4 mps 753 mmHg 87%
    03:00 +10°C° 0.1 mm 4 mps 753 mmHg 85%
    04:00 +9°C° 0.1 mm 3 mps 754 mmHg 82%
    05:00 +8°C° 0.1 mm 3 mps 754 mmHg 80%
    06:00 +8°C° 0 mm 3 mps 754 mmHg 78%
    07:00 +8°C° 0 mm 3 mps 755 mmHg 75%
    08:00 +9°C° 0 mm 3 mps 755 mmHg 73%
    09:00 +10°C° 0 mm 3 mps 756 mmHg 60%
    10:00 +12°C° 0 mm 3 mps 756 mmHg 48%
    11:00 +13°C° 0 mm 3 mps 756 mmHg 36%
    12:00 +14°C° 0 mm 3 mps 756 mmHg 32%
    13:00 +14°C° 0 mm 3 mps 756 mmHg 28%
    14:00 +16°C° 0 mm 3 mps 756 mmHg 24%
    15:00 +15°C° 0 mm 2 mps 756 mmHg 26%
    16:00 +14°C° 0 mm 2 mps 756 mmHg 28%
    17:00 +14°C° 0 mm 2 mps 756 mmHg 30%
    18:00 +12°C° 0 mm 2 mps 756 mmHg 32%
    19:00 +10°C° 0 mm 2 mps 756 mmHg 35%
    20:00 +8°C° 0 mm 2 mps 756 mmHg 38%
    21:00 +8°C° 0 mm 2 mps 757 mmHg 40%
    22:00 +7°C° 0 mm 2 mps 757 mmHg 43%
    23:00 +7°C° 0 mm 2 mps 757 mmHg 45%

    Day after tomorrow, 24 September, Tuesday

    Time Temperature Precipitation Wind Pressure Humidity
    00:00 +6°C° 0 mm 2 mps 757 mmHg 46%
    01:00 +6°C° 0 mm 2 mps 757 mmHg 48%
    02:00 +6°C° 0 mm 2 mps 757 mmHg 50%
    03:00 +5°C° 0 mm 2 mps 757 mmHg 51%
    04:00 +5°C° 0 mm 2 mps 756 mmHg 52%
    05:00 +5°C° 0 mm 2 mps 756 mmHg 53%
    06:00 +7°C° 0 mm 2 mps 756 mmHg 48%
    07:00 +8°C° 0 mm 2 mps 756 mmHg 43%
    08:00 +10°C° 0 mm 3 mps 756 mmHg 38%
    09:00 +13°C° 0 mm 2 mps 756 mmHg 35%
    10:00 +14°C° 0 mm 2 mps 756 mmHg 31%
    11:00 +16°C° 0 mm 2 mps 756 mmHg 28%
    12:00 +16°C° 0 mm 2 mps 756 mmHg 29%
    13:00 +16°C° 0 mm 1 mps 755 mmHg 30%
    14:00 +16°C° 0 mm 1 mps 755 mmHg 31%
    15:00 +16°C° 0 mm 1 mps 754 mmHg 34%
    16:00 +15°C° 0 mm 1 mps 754 mmHg 37%
    17:00 +14°C° 0 mm 1 mps 754 mmHg 39%
    18:00 +14°C° 0 mm 1 mps 754 mmHg 40%
    19:00 +14°C° 0 mm 2 mps 754 mmHg 41%
    20:00 +13°C° 0 mm 2 mps 754 mmHg 42%
    21:00 +12°C° 0 mm 3 mps 754 mmHg 44%
    22:00 +12°C° 0 mm 3 mps 754 mmHg 46%
    23:00 +12°C° 0 mm 3 mps 754 mmHg 48%

    25 September, Wednesday

    Time Temperature Precipitation Wind Pressure Humidity
    00:00 +11°C° 0.3 mm 3 mps 754 mmHg 59%
    01:00 +10°C° 0.3 mm 3 mps 754 mmHg 69%
    02:00 +9°C° 0.3 mm 3 mps 754 mmHg 80%
    03:00 +9°C° 0.5 mm 3 mps 754 mmHg 83%
    04:00 +10°C° 0.5 mm 3 mps 754 mmHg 85%
    05:00 +10°C° 0.5 mm 3 mps 754 mmHg 88%
    06:00 +10°C° 0 mm 3 mps 754 mmHg 84%
    07:00 +11°C° 0 mm 4 mps 754 mmHg 80%
    08:00 +12°C° 0 mm 4 mps 754 mmHg 77%
    09:00 +14°C° 0 mm 4 mps 754 mmHg 70%
    10:00 +15°C° 0 mm 4 mps 754 mmHg 63%
    11:00 +18°C° 0 mm 4 mps 754 mmHg 55%
    12:00 +19°C° 0 mm 3 mps 753 mmHg 52%
    13:00 +20°C° 0 mm 3 mps 753 mmHg 49%
    14:00 +21°C° 0 mm 3 mps 753 mmHg 46%
    15:00 +20°C° 0 mm 2 mps 752 mmHg 48%
    16:00 +20°C° 0 mm 2 mps 752 mmHg 50%
    17:00 +19°C° 0 mm 2 mps 752 mmHg 53%
    18:00 +18°C° 0 mm 3 mps 752 mmHg 55%
    19:00 +17°C° 0 mm 4 mps 752 mmHg 58%
    20:00 +15°C° 0 mm 5 mps 752 mmHg 60%
    21:00 +14°C° 0 mm 5 mps 752 mmHg 61%
    22:00 +14°C° 0 mm 4 mps 752 mmHg 61%
    23:00 +13°C° 0 mm 4 mps 752 mmHg 62%

    26 September, Thursday

    Time Temperature Precipitation Wind Pressure Humidity
    00:00 +13°C° 0 mm 4 mps 752 mmHg 62%
    01:00 +12°C° 0 mm 3 mps 752 mmHg 63%
    02:00 +12°C° 0 mm 3 mps 752 mmHg 63%
    03:00 +12°C° 0 mm 3 mps 752 mmHg 63%
    04:00 +12°C° 0 mm 3 mps 752 mmHg 64%
    05:00 +12°C° 0 mm 3 mps 752 mmHg 64%
    06:00 +13°C° 0 mm 3 mps 752 mmHg 58%
    07:00 +14°C° 0 mm 4 mps 752 mmHg 52%
    08:00 +15°C° 0 mm 4 mps 752 mmHg 46%
    09:00 +17°C° 0 mm 5 mps 752 mmHg 43%
    10:00 +20°C° 0 mm 5 mps 752 mmHg 40%
    11:00 +21°C° 0 mm 6 mps 752 mmHg 36%
    12:00 +22°C° 0 mm 5 mps 751 mmHg 35%
    13:00 +22°C° 0 mm 5 mps 751 mmHg 34%
    14:00 +23°C° 0 mm 4 mps 750 mmHg 34%
    15:00 +22°C° 0 mm 4 mps 750 mmHg 38%
    16:00 +20°C° 0 mm 3 mps 750 mmHg 42%
    17:00 +19°C° 0 mm 2 mps 749 mmHg 46%
    18:00 +18°C° 0.4 mm 2 mps 749 mmHg 60%
    19:00 +16°C° 0.4 mm 2 mps 749 mmHg 74%
    20:00 +15°C° 0.4 mm 2 mps 749 mmHg 88%
    21:00 +15°C° 1 mm 1 mps 749 mmHg 90%
    22:00 +15°C° 1 mm 1 mps 749 mmHg 92%
    23:00 +14°C° 1 mm 1 mps 749 mmHg 94%

    27 September, Friday

    Time Temperature Precipitation Wind Pressure Humidity
    00:00 +15°C° 0.3 mm 1 mps 749 mmHg 93%
    01:00 +15°C° 0.3 mm 2 mps 748 mmHg 93%
    02:00 +14°C° 0.3 mm 3 mps 748 mmHg 93%
    03:00 +14°C° 0.2 mm 3 mps 748 mmHg 93%
    04:00 +14°C° 0.2 mm 4 mps 748 mmHg 92%
    05:00 +14°C° 0.2 mm 4 mps 748 mmHg 92%
    06:00 +14°C° 0.1 mm 5 mps 748 mmHg 89%
    07:00 +14°C° 0.1 mm 5 mps 748 mmHg 85%
    08:00 +14°C° 0.1 mm 6 mps 748 mmHg 82%
    09:00 +15°C° 0 mm 6 mps 749 mmHg 76%
    10:00 +16°C° 0 mm 6 mps 749 mmHg 71%
    11:00 +17°C° 0 mm 7 mps 749 mmHg 66%
    12:00 +18°C° 0.2 mm 7 mps 749 mmHg 63%
    13:00 +18°C° 0.2 mm 7 mps 749 mmHg 60%
    14:00 +20°C° 0.2 mm 7 mps 749 mmHg 58%
    15:00 +17°C° 0.1 mm 6 mps 749 mmHg 62%
    16:00 +16°C° 0.1 mm 6 mps 749 mmHg 67%
    17:00 +15°C° 0.1 mm 5 mps 750 mmHg 71%
    18:00 +15°C° 0 mm 4 mps 750 mmHg 73%
    19:00 +14°C° 0 mm 4 mps 750 mmHg 75%
    20:00 +13°C° 0 mm 4 mps 751 mmHg 77%
    21:00 +13°C° 0 mm 4 mps 751 mmHg 79%
    22:00 +12°C° 0 mm 4 mps 751 mmHg 81%
    23:00 +12°C° 0 mm 5 mps 751 mmHg 82%
    Show more